CDT,Max TemperatureF,Mean TemperatureF,Min TemperatureF,Max Dew PointF,MeanDew PointF,Min DewpointF,Max Humidity, Mean Humidity, Min Humidity, Max Sea Level PressureIn, Mean Sea Level PressureIn, Min Sea Level PressureIn, Max VisibilityMiles, Mean VisibilityMiles, Min VisibilityMiles, Max Wind SpeedMPH, Mean Wind SpeedMPH, Max Gust SpeedMPH,PrecipitationIn, CloudCover, Events, WindDirDegrees
2013-3-1,37,34,32,34,34,32,100,95,79,30.09,30.06,30.02,10,4,1,13,7,,0.04,8,Rain-Snow,323
2013-3-2,35,32,30,34,30,22,100,90,69,30.19,30.12,30.06,10,6,2,15,9,,0.01,8,Snow,331
2013-3-3,39,32,25,25,21,17,85,65,42,30.20,30.15,30.11,10,10,10,10,7,,0.00,2,,301
2013-3-4,48,38,28,34,26,21,85,58,44,30.14,30.01,29.85,10,10,10,18,8,22,0.00,5,Rain,125
2013-3-5,50,41,32,47,36,24,100,87,70,29.95,29.83,29.72,10,6,1,28,12,39,0.12,8,Rain-Snow,286
2013-3-6,34,33,32,29,28,25,89,80,73,30.35,30.20,29.95,10,9,2,21,16,31,0.00,8,Snow,324
2013-3-7,39,36,32,31,28,26,86,73,63,30.43,30.40,30.35,10,10,8,7,5,,0.00,8,,28
2013-3-8,52,41,30,31,28,27,89,62,38,30.48,30.39,30.31,10,10,8,10,5,,0.00,0,,85
2013-3-9,61,50,38,38,34,30,74,53,41,30.29,30.14,29.99,10,10,10,14,10,,0.00,2,,145
2013-3-10,66,59,52,55,44,37,100,64,34,29.98,29.85,29.75,10,7,2,25,14,33,0.46,3,Rain,170
2013-3-11,55,46,37,55,46,32,100,89,71,30.00,29.81,29.72,10,7,2,23,14,34,0.96,8,Rain,227
2013-3-12,48,41,34,33,30,27,85,65,45,30.16,30.08,30.00,10,10,10,14,9,21,0.00,3,,282
2013-3-13,37,32,26,29,23,17,85,64,45,30.44,30.31,30.16,10,9,2,21,12,29,0.00,5,Snow,315
2013-3-14,43,34,24,34,27,21,92,78,48,30.43,30.35,30.19,10,10,7,12,4,,0.00,2,,185
2013-3-15,70,51,32,50,41,31,93,70,44,30.18,29.97,29.76,10,10,10,12,7,,0.00,1,Rain,182
2013-3-16,68,56,43,51,46,38,82,65,51,30.00,29.83,29.69,10,9,5,21,16,28,0.00,1,,275
2013-3-17,42,40,38,40,39,37,100,95,81,30.08,30.00,29.83,10,4,1,17,9,25,0.95,8,Rain,38
2013-3-18,52,44,36,52,42,35,100,93,79,29.97,29.77,29.65,10,6,1,20,12,26,0.80,7,Rain-Thunderstorm,262
2013-3-19,47,40,32,36,26,15,93,59,28,30.21,30.15,29.99,10,10,10,15,9,22,0.00,0,,301
2013-3-20,43,35,26,30,22,14,89,61,41,30.18,30.15,30.12,10,10,10,23,7,29,0.00,1,,304
2013-3-21,36,30,24,18,16,13,69,56,44,30.13,30.08,30.03,10,10,10,14,6,17,0.00,2,,329
2013-3-22,41,34,28,22,19,16,67,50,37,30.09,30.06,30.02,10,10,10,9,5,,0.00,5,,111
2013-3-23,57,48,38,35,27,21,58,45,35,30.04,29.95,29.77,10,10,10,12,7,,0.00,4,Rain,69
2013-3-24,45,39,33,42,37,32,97,89,71,29.78,29.59,29.42,10,5,2,21,12,30,0.50,8,Rain-Snow,61
2013-3-25,39,36,32,34,32,30,100,91,76,30.12,29.86,29.60,10,6,2,23,17,29,0.00,8,Snow,298
2013-3-26,43,38,32,32,30,27,93,77,56,30.36,30.24,30.12,10,9,5,15,11,21,0.00,7,Snow,312
2013-3-27,46,36,27,30,26,23,88,64,44,30.41,30.37,30.34,10,10,10,10,6,17,0.00,1,,299
2013-3-28,54,44,34,32,28,23,82,55,33,30.42,30.36,30.30,10,10,10,7,2,,0.00,2,,33
2013-3-29,50,46,41,46,41,28,100,83,50,30.32,30.27,30.23,10,8,3,12,4,,0.02,7,Rain,147
2013-3-30,59,47,35,50,44,36,100,93,57,30.23,30.13,29.91,10,4,0,13,3,,0.20,5,Fog-Rain-Snow,157
2013-3-31,63,56,48,52,49,45,100,93,56,29.95,29.89,29.86,10,4,0,12,5,,0.03,7,Fog-Rain,284